Location: Grosseto
(42.7670°N, 11.1330°E)
Time: 06:23:42
(UTC+01:00)

ISS - Visible Passes

Search period start: 20 January 2019 00:00
Search period end: 30 January 2019 00:00
Orbit: 404 x 410 km, 51.6° (Epoch: 20 January)

Date Brightness Start Highest point End Pass type
(mag) Time Alt. Az. Time Alt. Az. Time Alt. Az.
20 Jan -0.8 19:34:37 10° SSW 19:34:52 12° SSW 19:34:52 12° SSW visible
21 Jan -2.0 18:43:59 10° S 18:46:04 19° SE 18:46:04 19° SE visible
22 Jan -1.4 17:54:24 10° SE 17:55:19 11° SE 17:56:16 10° ESE visible
22 Jan -2.1 19:28:05 10° SW 19:29:55 31° SW 19:29:55 31° SW visible
23 Jan -3.4 18:36:51 10° SW 18:40:02 47° SE 18:40:56 36° E visible
24 Jan -2.4 17:45:58 10° SSW 17:48:45 26° SE 17:51:34 10° ENE visible
24 Jan -2.6 19:21:59 10° W 19:24:36 39° WNW 19:24:36 39° WNW visible
25 Jan -3.7 18:30:25 10° WSW 18:33:42 72° NNW 18:35:27 25° NE visible
25 Jan -0.3 20:08:03 10° WNW 20:08:10 11° WNW 20:08:10 11° WNW visible
26 Jan -2.1 19:16:11 10° WNW 19:18:57 26° NNW 19:18:57 26° NNW visible
27 Jan -2.7 18:24:23 10° W 18:27:28 36° NNW 18:29:41 16° NE visible
27 Jan -0.4 20:02:20 10° NW 20:02:24 10° NW 20:02:24 10° NW visible
28 Jan -1.8 19:10:29 10° WNW 19:13:00 20° N 19:13:05 20° N visible
29 Jan -2.0 18:18:34 10° WNW 18:21:19 23° NNW 18:23:44 12° NE visible
29 Jan -0.6 19:56:19 10° NW 19:56:26 10° NW 19:56:26 10° NW visible
